Time,TemperatureF,DewpointF,PressureIn,WindDirection,WindDirectionDegrees,WindSpeedMPH,WindSpeedGustMPH,Humidity,HourlyPrecipIn,Conditions,Clouds,dailyrainin,SoftwareType,DateUTC
2013-10-01 00:02:00,64.8,54.4,29.88,SSW,202,0.0,0.0,69,0.00,,,0.00,VWS V14.01,2013-10-01 05:02:00,
2013-10-01 00:07:00,64.9,54.5,29.91,SSW,202,0.0,0.0,69,0.00,,,0.00,VWS V14.01,2013-10-01 05:07:00,
2013-10-01 00:12:00,64.9,54.5,29.91,SSW,202,0.0,0.0,69,0.00,,,0.00,VWS V14.01,2013-10-01 05:12:00,
2013-10-01 00:17:00,65.1,54.7,29.91,SSW,202,0.0,0.0,69,0.00,,,0.00,VWS V14.01,2013-10-01 05:17:00,
2013-10-01 00:22:00,65.5,55.0,29.91,South,180,0.0,0.0,69,0.00,,,0.00,VWS V14.01,2013-10-01 05:22:00,
2013-10-01 00:27:00,65.7,55.2,29.88,South,180,0.0,0.0,69,0.00,,,0.00,VWS V14.01,2013-10-01 05:27:00,
2013-10-01 00:32:00,65.8,55.4,29.88,South,180,0.0,0.0,69,0.00,,,0.00,VWS V14.01,2013-10-01 05:32:00,
2013-10-01 00:37:00,65.8,55.4,29.88,SSW,202,4.9,5.8,69,0.00,,,0.00,VWS V14.01,2013-10-01 05:37:00,
2013-10-01 00:42:00,65.8,55.4,29.88,South,180,0.0,0.0,69,0.00,,,0.00,VWS V14.01,2013-10-01 05:42:00,
2013-10-01 00:47:00,65.8,55.8,29.88,SSW,202,0.0,0.0,70,0.00,,,0.00,VWS V14.01,2013-10-01 05:47:00,
2013-10-01 00:52:00,65.8,55.8,29.88,South,180,0.0,0.0,70,0.00,,,0.00,VWS V14.01,2013-10-01 05:52:00,
2013-10-01 00:57:00,65.7,56.0,29.88,SSW,202,0.0,0.0,71,0.00,,,0.00,VWS V14.01,2013-10-01 05:57:00,
2013-10-01 01:02:00,65.7,56.0,29.88,South,180,2.7,2.7,71,0.00,,,0.00,VWS V14.01,2013-10-01 06:02:00,
2013-10-01 01:07:00,65.5,56.2,29.88,South,180,0.0,0.0,72,0.00,,,0.00,VWS V14.01,2013-10-01 06:07:00,
2013-10-01 01:12:00,65.5,56.6,29.88,South,180,0.0,0.0,73,0.00,,,0.00,VWS V14.01,2013-10-01 06:12:00,
2013-10-01 01:17:00,65.3,56.4,29.88,South,180,0.0,0.0,73,0.00,,,0.00,VWS V14.01,2013-10-01 06:17:00,
2013-10-01 01:22:00,65.3,56.8,29.88,South,180,0.0,0.0,74,0.00,,,0.00,VWS V14.01,2013-10-01 06:22:00,
2013-10-01 01:27:00,65.1,56.6,29.88,South,180,0.0,0.0,74,0.00,,,0.00,VWS V14.01,2013-10-01 06:27:00,
2013-10-01 01:32:00,64.9,56.8,29.88,South,180,0.0,0.0,75,0.00,,,0.00,VWS V14.01,2013-10-01 06:32:00,
2013-10-01 01:37:00,64.9,57.2,29.88,SSW,202,0.0,0.0,76,0.00,,,0.00,VWS V14.01,2013-10-01 06:37:00,
2013-10-01 01:42:00,64.8,57.0,29.88,South,180,0.0,0.0,76,0.00,,,0.00,VWS V14.01,2013-10-01 06:42:00,
2013-10-01 01:47:00,64.6,57.2,29.88,South,180,0.0,0.0,77,0.00,,,0.00,VWS V14.01,2013-10-01 06:47:00,
2013-10-01 01:52:00,64.4,57.0,29.91,South,180,0.0,0.0,77,0.00,,,0.00,VWS V14.01,2013-10-01 06:52:00,
2013-10-01 01:57:00,64.4,57.8,29.91,SSW,202,0.0,0.0,79,0.00,,,0.62,VWS V14.01,2013-10-01 06:57:00,
2013-10-01 02:02:00,64.4,57.8,29.91,South,180,0.0,0.0,79,0.00,,,0.00,VWS V14.01,2013-10-01 07:02:00,
2013-10-01 02:07:00,64.2,57.9,29.88,South,180,0.0,0.0,80,0.00,,,0.00,VWS V14.01,2013-10-01 07:07:00,
2013-10-01 02:12:00,64.2,57.9,29.88,South,180,0.0,0.0,80,0.00,,,0.00,VWS V14.01,2013-10-01 07:12:00,
2013-10-01 02:17:00,64.2,57.9,29.88,South,180,0.0,0.0,80,0.00,,,0.00,VWS V14.01,2013-10-01 07:17:00,
2013-10-01 02:22:00,64.0,58.1,29.91,South,180,0.0,0.0,81,0.00,,,0.00,VWS V14.01,2013-10-01 07:22:00,
2013-10-01 02:27:00,64.0,58.1,29.91,South,180,0.0,0.0,81,0.00,,,0.00,VWS V14.01,2013-10-01 07:27:00,
2013-10-01 02:32:00,64.0,58.1,29.91,South,180,0.0,0.0,81,0.00,,,0.00,VWS V14.01,2013-10-01 07:32:00,
2013-10-01 02:37:00,63.9,58.3,29.91,South,180,0.0,0.0,82,0.00,,,0.00,VWS V14.01,2013-10-01 07:37:00,
2013-10-01 02:42:00,63.9,58.3,29.91,South,180,0.0,0.0,82,0.00,,,0.00,VWS V14.01,2013-10-01 07:42:00,
2013-10-01 02:47:00,63.9,58.6,29.91,South,180,0.0,0.0,83,0.00,,,0.00,VWS V14.01,2013-10-01 07:47:00,
2013-10-01 02:52:00,63.9,58.6,29.88,South,180,0.0,0.0,83,0.00,,,0.00,VWS V14.01,2013-10-01 07:52:00,
2013-10-01 02:57:00,63.9,58.6,29.88,South,180,0.0,0.0,83,0.00,,,0.00,VWS V14.01,2013-10-01 07:57:00,
2013-10-01 03:03:00,63.9,58.9,29.88,South,180,0.0,0.0,84,0.00,,,0.00,VWS V14.01,2013-10-01 08:03:00,
2013-10-01 03:08:00,63.9,58.9,29.91,South,180,0.0,0.0,84,0.00,,,0.00,VWS V14.01,2013-10-01 08:08:00,
2013-10-01 03:13:00,63.9,59.3,29.91,South,180,0.0,0.0,85,0.00,,,0.00,VWS V14.01,2013-10-01 08:13:00,
2013-10-01 03:18:00,63.7,59.1,29.91,South,180,0.0,0.0,85,0.00,,,0.00,VWS V14.01,2013-10-01 08:18:00,
2013-10-01 03:23:00,63.7,59.4,29.91,South,180,0.0,0.0,86,0.00,,,0.00,VWS V14.01,2013-10-01 08:23:00,
2013-10-01 03:28:00,63.7,59.4,29.91,South,180,0.0,0.0,86,0.00,,,0.00,VWS V14.01,2013-10-01 08:28:00,
2013-10-01 03:33:00,63.7,59.4,29.91,South,180,0.0,0.0,86,0.00,,,0.00,VWS V14.01,2013-10-01 08:33:00,
2013-10-01 03:38:00,63.7,59.7,29.91,South,180,0.0,0.0,87,0.00,,,0.00,VWS V14.01,2013-10-01 08:38:00,
2013-10-01 03:43:00,63.5,59.6,29.91,South,180,0.0,0.0,87,0.00,,,0.00,VWS V14.01,2013-10-01 08:43:00,
2013-10-01 03:48:00,63.5,59.9,29.91,South,180,0.0,0.0,88,0.00,,,0.00,VWS V14.01,2013-10-01 08:48:00,
2013-10-01 03:53:00,63.5,59.9,29.91,South,180,0.0,0.0,88,0.00,,,0.00,VWS V14.01,2013-10-01 08:53:00,
2013-10-01 03:58:00,63.5,60.2,29.91,South,180,0.0,0.0,89,0.00,,,0.00,VWS V14.01,2013-10-01 08:58:00,
2013-10-01 04:03:00,63.7,60.4,29.91,South,180,0.0,0.0,89,0.00,,,0.00,VWS V14.01,2013-10-01 09:03:00,
2013-10-01 04:08:00,63.9,60.9,29.91,South,180,0.0,0.0,90,0.00,,,0.00,VWS V14.01,2013-10-01 09:08:00,
2013-10-01 04:13:00,64.0,61.0,29.91,South,180,0.0,0.0,90,0.00,,,0.00,VWS V14.01,2013-10-01 09:13:00,
2013-10-01 04:18:00,64.2,61.5,29.91,South,180,0.0,0.0,91,0.00,,,0.00,VWS V14.01,2013-10-01 09:18:00,
2013-10-01 04:23:00,64.4,61.7,29.91,South,180,0.0,5.4,91,0.00,,,0.00,VWS V14.01,2013-10-01 09:23:00,
2013-10-01 04:28:00,64.6,61.9,29.91,SSW,202,0.0,0.0,91,0.00,,,0.00,VWS V14.01,2013-10-01 09:28:00,
2013-10-01 04:33:00,64.8,62.1,29.91,SSW,202,0.0,0.0,91,0.00,,,0.00,VWS V14.01,2013-10-01 09:33:00,
2013-10-01 04:38:00,64.9,62.2,29.91,South,180,0.0,0.0,91,0.00,,,0.00,VWS V14.01,2013-10-01 09:38:00,
2013-10-01 04:43:00,65.1,62.7,29.91,SSW,202,0.0,0.0,92,0.00,,,0.00,VWS V14.01,2013-10-01 09:43:00,
2013-10-01 04:48:00,65.1,62.7,29.91,SSW,202,0.0,0.0,92,0.00,,,0.00,VWS V14.01,2013-10-01 09:48:00,
2013-10-01 04:53:00,65.3,62.9,29.91,South,180,0.0,0.0,92,0.00,,,0.00,VWS V14.01,2013-10-01 09:53:00,
2013-10-01 04:58:00,65.5,63.1,29.91,South,180,0.0,0.0,92,0.00,,,0.00,VWS V14.01,2013-10-01 09:58:00,
2013-10-01 05:03:00,65.7,63.3,29.91,South,180,0.0,0.0,92,0.00,,,0.00,VWS V14.01,2013-10-01 10:03:00,
2013-10-01 05:08:00,65.8,63.5,29.91,SSW,202,0.0,0.0,92,0.00,,,0.00,VWS V14.01,2013-10-01 10:08:00,
2013-10-01 05:13:00,65.8,63.5,29.91,SSW,202,0.0,0.0,92,0.00,,,0.00,VWS V14.01,2013-10-01 10:13:00,
2013-10-01 05:18:00,65.8,63.5,29.91,SSW,202,0.0,0.0,92,0.00,,,0.00,VWS V14.01,2013-10-01 10:18:00,
2013-10-01 05:23:00,65.8,63.5,29.91,SSW,202,0.0,0.0,92,0.00,,,0.00,VWS V14.01,2013-10-01 10:23:00,
2013-10-01 05:28:00,66.0,63.3,29.91,SW,225,0.0,0.0,91,0.00,,,0.00,VWS V14.01,2013-10-01 10:28:00,
2013-10-01 05:33:00,66.0,63.3,29.91,SSW,202,0.0,0.0,91,0.00,,,0.00,VWS V14.01,2013-10-01 10:33:00,
2013-10-01 05:38:00,66.0,63.3,29.94,SSW,202,0.0,0.0,91,0.00,,,0.00,VWS V14.01,2013-10-01 10:38:00,
2013-10-01 05:43:00,66.2,63.5,29.94,South,180,0.0,0.0,91,0.00,,,0.00,VWS V14.01,2013-10-01 10:43:00,
2013-10-01 05:48:00,66.2,63.2,29.94,SSW,202,0.0,0.0,90,0.00,,,0.00,VWS V14.01,2013-10-01 10:48:00,
2013-10-01 05:53:00,66.2,63.2,29.91,SSW,202,0.0,0.0,90,0.00,,,0.00,VWS V14.01,2013-10-01 10:53:00,
2013-10-01 05:58:00,66.2,63.2,29.91,SSW,202,0.0,0.0,90,0.00,,,0.00,VWS V14.01,2013-10-01 10:58:00,
2013-10-01 06:03:00,66.2,63.2,29.91,SSW,202,0.0,0.0,90,0.00,,,0.00,VWS V14.01,2013-10-01 11:03:00,
2013-10-01 06:08:00,66.2,62.9,29.94,SSW,202,0.0,0.0,89,0.00,,,0.00,VWS V14.01,2013-10-01 11:08:00,
2013-10-01 06:13:00,66.2,62.9,29.94,SSW,202,0.0,0.0,89,0.00,,,0.00,VWS V14.01,2013-10-01 11:13:00,
2013-10-01 06:18:00,66.2,62.9,29.94,SSW,202,0.0,0.0,89,0.00,,,0.00,VWS V14.01,2013-10-01 11:18:00,
2013-10-01 06:23:00,66.2,62.5,29.94,SSW,202,0.0,0.0,88,0.00,,,0.00,VWS V14.01,2013-10-01 11:23:00,
2013-10-01 06:28:00,66.2,62.5,29.94,SSW,202,0.0,0.0,88,0.00,,,0.00,VWS V14.01,2013-10-01 11:28:00,
2013-10-01 06:33:00,66.2,62.5,29.94,SSW,202,0.0,0.0,88,0.00,,,0.00,VWS V14.01,2013-10-01 11:33:00,
2013-10-01 06:38:00,66.2,62.5,29.94,SSW,202,0.0,0.0,88,0.00,,,0.00,VWS V14.01,2013-10-01 11:38:00,
2013-10-01 06:43:00,66.2,62.5,29.94,South,180,0.0,0.0,88,0.00,,,0.00,VWS V14.01,2013-10-01 11:43:00,
2013-10-01 06:48:00,66.2,62.5,29.94,SSW,202,0.0,0.0,88,0.00,,,0.00,VWS V14.01,2013-10-01 11:48:00,
2013-10-01 06:53:00,66.2,62.5,29.94,SSW,202,0.0,0.0,88,0.00,,,0.00,VWS V14.01,2013-10-01 11:53:00,
2013-10-01 06:58:00,66.2,62.5,29.94,South,180,0.0,0.0,88,0.00,,,0.00,VWS V14.01,2013-10-01 11:58:00,
2013-10-01 07:03:00,66.2,62.5,29.94,South,180,0.0,0.0,88,0.00,,,0.00,VWS V14.01,2013-10-01 12:03:00,
2013-10-01 07:08:00,66.2,62.5,29.94,South,180,0.0,0.0,88,0.00,,,0.00,VWS V14.01,2013-10-01 12:08:00,
2013-10-01 07:13:00,66.4,62.7,29.94,South,180,0.0,0.0,88,0.00,,,0.00,VWS V14.01,2013-10-01 12:13:00,
2013-10-01 07:18:00,66.4,62.7,29.94,South,180,0.0,0.0,88,0.00,,,0.00,VWS V14.01,2013-10-01 12:18:00,
2013-10-01 07:23:00,66.4,62.7,29.94,South,180,0.0,0.0,88,0.00,,,0.00,VWS V14.01,2013-10-01 12:23:00,
2013-10-01 07:29:00,66.4,63.0,29.94,SSE,158,0.0,0.0,89,0.00,,,0.00,VWS V14.01,2013-10-01 12:29:00,
2013-10-01 07:34:00,66.6,63.2,29.94,South,180,0.0,0.0,89,0.00,,,0.00,VWS V14.01,2013-10-01 12:34:00,
2013-10-01 07:39:00,66.6,63.2,29.94,South,180,0.0,0.0,89,0.00,,,0.00,VWS V14.01,2013-10-01 12:39:00,
2013-10-01 07:44:00,66.7,63.4,29.94,South,180,0.0,0.0,89,0.00,,,0.00,VWS V14.01,2013-10-01 12:44:00,
2013-10-01 07:49:00,66.7,63.4,29.94,SSW,202,0.0,5.8,89,0.00,,,0.00,VWS V14.01,2013-10-01 12:49:00,
2013-10-01 07:54:00,66.9,63.6,29.97,WSW,248,0.0,0.0,89,0.00,,,0.00,VWS V14.01,2013-10-01 12:54:00,
2013-10-01 07:59:00,66.9,63.6,29.97,SSW,202,0.0,0.0,89,0.00,,,0.00,VWS V14.01,2013-10-01 12:59:00,
2013-10-01 08:04:00,67.1,63.8,29.97,South,180,0.0,0.0,89,0.00,,,0.00,VWS V14.01,2013-10-01 13:04:00,
2013-10-01 08:09:00,67.1,63.4,29.97,SSE,158,0.0,0.0,88,0.00,,,0.00,VWS V14.01,2013-10-01 13:09:00,
2013-10-01 08:14:00,67.3,63.6,29.97,South,180,0.0,0.0,88,0.00,,,0.00,VWS V14.01,2013-10-01 13:14:00,
2013-10-01 08:19:00,67.5,63.8,29.97,South,180,0.0,0.0,88,0.00,,,0.00,VWS V14.01,2013-10-01 13:19:00,
2013-10-01 08:24:00,67.5,63.8,29.97,SSW,202,0.0,0.0,88,0.00,,,0.00,VWS V14.01,2013-10-01 13:24:00,
2013-10-01 08:29:00,67.6,64.0,29.97,SSW,202,0.0,0.0,88,0.00,,,0.00,VWS V14.01,2013-10-01 13:29:00,
2013-10-01 08:34:00,67.6,63.6,29.97,SSW,202,0.0,0.0,87,0.00,,,0.00,VWS V14.01,2013-10-01 13:34:00,
2013-10-01 08:39:00,67.8,63.8,29.97,SSW,202,0.0,0.0,87,0.00,,,0.00,VWS V14.01,2013-10-01 13:39:00,
2013-10-01 08:44:00,68.0,64.0,29.97,WNW,292,0.0,0.0,87,0.00,,,0.00,VWS V14.01,2013-10-01 13:44:00,
2013-10-01 08:49:00,68.0,64.0,29.97,WNW,292,0.0,0.0,87,0.00,,,0.00,VWS V14.01,2013-10-01 13:49:00,
2013-10-01 08:54:00,68.2,63.8,29.97,WNW,292,0.0,0.0,86,0.00,,,0.00,VWS V14.01,2013-10-01 13:54:00,
2013-10-01 08:59:00,68.2,63.8,29.97,WNW,292,0.0,0.0,86,0.00,,,0.00,VWS V14.01,2013-10-01 13:59:00,
2013-10-01 09:04:00,68.4,64.0,29.97,South,180,0.0,0.0,86,0.00,,,0.00,VWS V14.01,2013-10-01 14:04:00,
2013-10-01 09:09:00,68.4,64.0,29.97,West,270,0.0,0.0,86,0.00,,,0.00,VWS V14.01,2013-10-01 14:09:00,
2013-10-01 09:14:00,68.5,63.9,29.97,West,270,0.0,0.0,85,0.00,,,0.00,VWS V14.01,2013-10-01 14:14:00,
2013-10-01 09:19:00,68.5,63.9,29.97,West,270,0.0,0.0,85,0.00,,,0.00,VWS V14.01,2013-10-01 14:19:00,
2013-10-01 09:24:00,68.7,64.0,29.97,West,270,0.0,0.0,85,0.00,,,0.00,VWS V14.01,2013-10-01 14:24:00,
2013-10-01 09:29:00,68.7,64.0,29.97,West,270,0.0,0.0,85,0.00,,,0.00,VWS V14.01,2013-10-01 14:29:00,
2013-10-01 09:34:00,68.9,63.9,29.97,SSW,202,0.0,0.0,84,0.00,,,0.00,VWS V14.01,2013-10-01 14:34:00,
2013-10-01 09:39:00,68.9,63.9,29.97,South,180,0.0,0.0,84,0.00,,,0.00,VWS V14.01,2013-10-01 14:39:00,
2013-10-01 09:44:00,69.1,63.7,29.97,South,180,4.5,4.5,83,0.00,,,0.00,VWS V14.01,2013-10-01 14:44:00,
2013-10-01 09:49:00,69.3,63.5,29.97,SW,225,0.0,0.0,82,0.00,,,0.00,VWS V14.01,2013-10-01 14:49:00,
2013-10-01 09:54:00,69.6,63.9,29.97,SSW,202,0.0,0.0,82,0.00,,,0.00,VWS V14.01,2013-10-01 14:54:00,
2013-10-01 10:01:00,69.6,63.5,29.97,South,180,0.0,0.0,81,0.00,,,0.00,VWS V14.01,2013-10-01 15:01:00,
2013-10-01 10:06:00,70.0,63.2,29.97,South,180,0.0,0.0,79,0.00,,,0.00,VWS V14.01,2013-10-01 15:06:00,
2013-10-01 10:11:00,70.2,63.3,29.97,WNW,292,0.0,0.0,79,0.00,,,0.00,VWS V14.01,2013-10-01 15:11:00,
2013-10-01 10:16:00,70.2,63.0,29.97,WNW,292,0.0,0.0,78,0.00,,,0.00,VWS V14.01,2013-10-01 15:16:00,
2013-10-01 10:21:00,70.3,62.8,29.97,South,180,0.0,0.0,77,0.00,,,0.00,VWS V14.01,2013-10-01 15:21:00,
2013-10-01 10:26:00,70.3,62.8,29.97,West,270,0.0,0.0,77,0.00,,,0.00,VWS V14.01,2013-10-01 15:26:00,
2013-10-01 10:31:00,70.3,62.4,29.97,West,270,0.0,0.0,76,0.00,,,0.00,VWS V14.01,2013-10-01 15:31:00,
2013-10-01 10:36:00,70.7,62.8,29.97,West,270,0.0,0.0,76,0.00,,,0.00,VWS V14.01,2013-10-01 15:36:00,
2013-10-01 10:41:00,70.9,62.6,29.97,WSW,248,0.0,0.0,75,0.00,,,0.00,VWS V14.01,2013-10-01 15:41:00,
2013-10-01 10:46:00,71.2,62.9,29.97,WNW,292,0.0,0.0,75,0.00,,,0.00,VWS V14.01,2013-10-01 15:46:00,
2013-10-01 10:51:00,71.4,62.3,29.97,South,180,0.0,0.0,73,0.00,,,0.00,VWS V14.01,2013-10-01 15:51:00,
2013-10-01 10:56:00,72.1,62.6,29.97,South,180,0.0,0.0,72,0.00,,,0.00,VWS V14.01,2013-10-01 15:56:00,
2013-10-01 11:01:00,72.1,61.8,29.97,West,270,0.0,0.0,70,0.00,,,0.00,VWS V14.01,2013-10-01 16:01:00,
2013-10-01 11:06:00,72.9,62.1,29.97,West,270,0.0,0.0,69,0.00,,,0.00,VWS V14.01,2013-10-01 16:06:00,
2013-10-01 11:11:00,72.9,61.3,29.97,West,270,0.0,0.0,67,0.00,,,0.00,VWS V14.01,2013-10-01 16:11:00,
2013-10-01 11:16:00,73.0,61.9,29.97,WNW,292,0.0,0.0,68,0.00,,,0.00,VWS V14.01,2013-10-01 16:16:00,
2013-10-01 11:21:00,73.0,61.0,29.97,SSW,202,0.0,0.0,66,0.00,,,0.00,VWS V14.01,2013-10-01 16:21:00,
2013-10-01 11:26:00,73.2,61.2,29.97,SW,225,0.0,0.0,66,0.00,,,0.00,VWS V14.01,2013-10-01 16:26:00,
2013-10-01 11:31:00,73.8,61.3,29.97,SW,225,0.0,0.0,65,0.00,,,0.00,VWS V14.01,2013-10-01 16:31:00,
2013-10-01 11:36:00,73.9,60.1,29.97,SSW,202,0.0,0.0,62,0.00,,,0.00,VWS V14.01,2013-10-01 16:36:00,
2013-10-01 11:41:00,74.3,60.9,29.97,South,180,3.6,3.6,63,0.00,,,0.00,VWS V14.01,2013-10-01 16:41:00,
2013-10-01 11:46:00,74.8,60.5,29.97,West,270,4.0,4.0,61,0.00,,,0.00,VWS V14.01,2013-10-01 16:46:00,
2013-10-01 11:51:00,74.8,59.6,29.97,WSW,248,0.0,0.0,59,0.00,,,0.00,VWS V14.01,2013-10-01 16:51:00,
2013-10-01 11:56:00,75.0,59.7,29.97,West,270,0.0,0.0,59,0.00,,,0.00,VWS V14.01,2013-10-01 16:56:00,
2013-10-01 12:01:00,75.6,59.8,29.97,WSW,248,2.7,2.7,58,0.00,,,0.00,VWS V14.01,2013-10-01 17:01:00,
2013-10-01 12:06:00,75.9,59.1,29.97,South,180,0.0,0.0,56,0.00,,,0.00,VWS V14.01,2013-10-01 17:06:00,
2013-10-01 12:11:00,75.9,59.6,29.97,West,270,0.0,0.0,57,0.00,,,0.00,VWS V14.01,2013-10-01 17:11:00,
2013-10-01 12:16:00,75.7,59.9,29.97,WNW,292,0.0,0.0,58,0.00,,,0.00,VWS V14.01,2013-10-01 17:16:00,
2013-10-01 12:21:00,75.7,59.9,29.97,WNW,292,0.0,0.0,58,0.00,,,0.00,VWS V14.01,2013-10-01 17:21:00,
2013-10-01 12:26:00,76.5,60.1,29.97,SW,225,0.0,0.0,57,0.00,,,0.00,VWS V14.01,2013-10-01 17:26:00,
2013-10-01 12:31:00,77.0,59.1,29.97,SW,225,0.0,0.0,54,0.00,,,0.00,VWS V14.01,2013-10-01 17:31:00,
2013-10-01 12:36:00,76.6,59.3,29.97,SW,225,0.0,0.0,55,0.00,,,0.00,VWS V14.01,2013-10-01 17:36:00,
2013-10-01 12:41:00,77.4,60.0,29.97,West,270,0.0,0.0,55,0.00,,,0.00,VWS V14.01,2013-10-01 17:41:00,
2013-10-01 12:46:00,77.5,59.1,29.97,WNW,292,0.0,0.0,53,0.00,,,0.00,VWS V14.01,2013-10-01 17:46:00,
2013-10-01 12:51:00,77.5,59.1,29.94,SSW,202,0.0,0.0,53,0.00,,,0.00,VWS V14.01,2013-10-01 17:51:00,
2013-10-01 12:56:00,77.9,58.9,29.94,SSW,202,4.0,4.0,52,0.00,,,0.00,VWS V14.01,2013-10-01 17:56:00,
2013-10-01 13:01:00,77.9,58.9,29.94,West,270,0.0,2.7,52,0.00,,,0.00,VWS V14.01,2013-10-01 18:01:00,
2013-10-01 13:06:00,78.1,59.6,29.94,SW,225,0.0,4.0,53,0.00,,,0.00,VWS V14.01,2013-10-01 18:06:00,
2013-10-01 13:11:00,78.3,58.7,29.94,WNW,292,0.0,2.2,51,0.00,,,0.00,VWS V14.01,2013-10-01 18:11:00,
2013-10-01 13:16:00,78.6,59.0,29.94,SW,225,0.0,4.0,51,0.00,,,0.00,VWS V14.01,2013-10-01 18:16:00,
2013-10-01 13:21:00,78.8,58.6,29.97,SSW,202,0.0,4.5,50,0.00,,,0.00,VWS V14.01,2013-10-01 18:21:00,
2013-10-01 13:26:00,79.0,58.2,29.97,WSW,248,0.0,0.0,49,0.00,,,0.00,VWS V14.01,2013-10-01 18:26:00,
2013-10-01 13:31:00,79.3,59.1,29.97,WNW,292,2.7,4.0,50,0.00,,,0.00,VWS V14.01,2013-10-01 18:31:00,
2013-10-01 13:36:00,79.3,59.1,29.94,WNW,292,0.0,0.0,50,0.00,,,0.00,VWS V14.01,2013-10-01 18:36:00,
2013-10-01 13:41:00,79.5,59.8,29.94,WNW,292,0.0,0.0,51,0.00,,,0.00,VWS V14.01,2013-10-01 18:41:00,
2013-10-01 13:46:00,79.9,59.0,29.94,WNW,292,0.0,0.0,49,0.00,,,0.00,VWS V14.01,2013-10-01 18:46:00,
2013-10-01 13:51:00,79.5,58.1,29.94,WNW,292,0.0,0.0,48,0.00,,,0.00,VWS V14.01,2013-10-01 18:51:00,
2013-10-01 13:56:00,80.2,58.8,29.94,West,270,0.0,4.0,48,0.00,,,0.00,VWS V14.01,2013-10-01 18:56:00,
2013-10-01 14:01:00,80.4,59.0,29.94,West,270,0.0,3.1,48,0.00,,,0.00,VWS V14.01,2013-10-01 19:01:00,
2013-10-01 14:06:00,80.6,57.9,29.94,West,270,2.2,3.1,46,0.00,,,0.00,VWS V14.01,2013-10-01 19:06:00,
2013-10-01 14:11:00,81.0,58.9,29.94,SSW,202,4.0,5.4,47,0.00,,,0.00,VWS V14.01,2013-10-01 19:11:00,
2013-10-01 14:16:00,81.0,59.4,29.94,SSW,202,0.0,0.0,48,0.00,,,0.00,VWS V14.01,2013-10-01 19:16:00,
2013-10-01 14:21:00,81.0,58.3,29.94,WNW,292,2.7,4.0,46,0.00,,,0.00,VWS V14.01,2013-10-01 19:21:00,
2013-10-01 14:26:00,81.3,58.6,29.94,WNW,292,3.1,3.1,46,0.00,,,0.00,VWS V14.01,2013-10-01 19:26:00,
2013-10-01 14:32:00,81.1,59.0,29.94,WNW,292,2.7,2.7,47,0.00,,,0.00,VWS V14.01,2013-10-01 19:32:00,
2013-10-01 14:37:00,80.8,58.1,29.94,WNW,292,0.0,0.0,46,0.00,,,0.00,VWS V14.01,2013-10-01 19:37:00,
2013-10-01 14:42:00,80.6,59.1,29.94,WNW,292,0.0,0.0,48,0.00,,,0.00,VWS V14.01,2013-10-01 19:42:00,
2013-10-01 14:47:00,81.3,58.6,29.94,WNW,292,2.2,4.0,46,0.00,,,0.00,VWS V14.01,2013-10-01 19:47:00,
2013-10-01 14:52:00,81.7,58.9,29.94,South,180,0.0,4.0,46,0.00,,,0.00,VWS V14.01,2013-10-01 19:52:00,
2013-10-01 14:56:00,82.0,58.6,29.94,West,270,2.7,3.1,45,0.00,,,0.00,VWS V14.01,2013-10-01 19:56:00,
2013-10-01 15:01:00,82.2,58.2,29.94,West,270,0.0,2.2,44,0.00,,,0.62,VWS V14.01,2013-10-01 20:01:00,
2013-10-01 15:06:00,82.0,58.0,29.91,West,270,2.7,2.7,44,0.00,,,0.00,VWS V14.01,2013-10-01 20:06:00,
2013-10-01 15:12:00,82.0,58.0,29.91,WNW,292,3.1,5.4,44,0.00,,,0.00,VWS V14.01,2013-10-01 20:12:00,
2013-10-01 15:17:00,82.0,58.6,29.91,WNW,292,2.7,2.7,45,0.00,,,0.00,VWS V14.01,2013-10-01 20:17:00,
2013-10-01 15:22:00,82.0,58.0,29.91,WNW,292,2.7,2.7,44,0.00,,,0.00,VWS V14.01,2013-10-01 20:22:00,
2013-10-01 15:27:00,82.2,57.5,29.91,West,270,0.0,0.0,43,0.00,,,0.00,VWS V14.01,2013-10-01 20:27:00,
2013-10-01 15:32:00,82.4,58.3,29.91,WSW,248,0.0,0.0,44,0.00,,,0.00,VWS V14.01,2013-10-01 20:32:00,
2013-10-01 15:37:00,82.6,57.8,29.91,WNW,292,4.0,4.0,43,0.00,,,0.00,VWS V14.01,2013-10-01 20:37:00,
2013-10-01 15:42:00,82.4,57.7,29.91,West,270,2.7,2.7,43,0.00,,,0.00,VWS V14.01,2013-10-01 20:42:00,
2013-10-01 15:47:00,82.4,57.0,29.91,West,270,0.0,2.2,42,0.00,,,0.00,VWS V14.01,2013-10-01 20:47:00,
2013-10-01 15:52:00,82.6,56.5,29.91,West,270,0.0,0.0,41,0.00,,,0.00,VWS V14.01,2013-10-01 20:52:00,
2013-10-01 15:57:00,82.8,57.3,29.91,West,270,0.0,2.2,42,0.00,,,0.00,VWS V14.01,2013-10-01 20:57:00,
2013-10-01 16:02:00,82.6,57.2,29.91,West,270,2.2,2.2,42,0.00,,,0.00,VWS V14.01,2013-10-01 21:02:00,
2013-10-01 16:07:00,82.8,56.7,29.91,WSW,248,0.0,0.0,41,0.00,,,0.00,VWS V14.01,2013-10-01 21:07:00,
2013-10-01 16:12:00,82.8,56.0,29.91,WNW,292,2.7,5.8,40,0.00,,,0.00,VWS V14.01,2013-10-01 21:12:00,
2013-10-01 16:17:00,82.8,56.7,29.91,SSW,202,2.2,2.7,41,0.00,,,0.00,VWS V14.01,2013-10-01 21:17:00,
2013-10-01 16:22:00,82.6,56.5,29.91,West,270,0.0,0.0,41,0.00,,,0.00,VWS V14.01,2013-10-01 21:22:00,
2013-10-01 16:27:00,82.6,56.5,29.91,West,270,3.1,3.1,41,0.00,,,0.00,VWS V14.01,2013-10-01 21:27:00,
2013-10-01 16:32:00,82.6,55.8,29.91,West,270,0.0,3.6,40,0.00,,,0.00,VWS V14.01,2013-10-01 21:32:00,
2013-10-01 16:37:00,82.8,56.0,29.91,West,270,4.5,4.5,40,0.00,,,0.00,VWS V14.01,2013-10-01 21:37:00,
2013-10-01 16:42:00,82.8,56.7,29.91,West,270,3.6,3.6,41,0.00,,,0.00,VWS V14.01,2013-10-01 21:42:00,
2013-10-01 16:47:00,82.6,55.8,29.91,WNW,292,0.0,0.0,40,0.00,,,0.00,VWS V14.01,2013-10-01 21:47:00,
2013-10-01 16:52:00,82.8,56.0,29.91,WNW,292,2.2,2.7,40,0.00,,,0.00,VWS V14.01,2013-10-01 21:52:00,
2013-10-01 16:57:00,82.9,56.2,29.91,WSW,248,0.0,0.0,40,0.00,,,0.00,VWS V14.01,2013-10-01 21:57:00,
2013-10-01 17:02:00,83.7,56.8,29.91,WSW,248,2.2,2.2,40,0.00,,,0.00,VWS V14.01,2013-10-01 22:02:00,
2013-10-01 17:07:00,83.1,56.3,29.91,West,270,0.0,2.2,40,0.00,,,0.00,VWS V14.01,2013-10-01 22:07:00,
2013-10-01 17:12:00,82.9,55.5,29.91,West,270,0.0,4.9,39,0.00,,,0.00,VWS V14.01,2013-10-01 22:12:00,
2013-10-01 17:17:00,82.8,55.3,29.91,WNW,292,0.0,0.0,39,0.00,,,0.00,VWS V14.01,2013-10-01 22:17:00,
2013-10-01 17:22:00,82.4,55.0,29.91,West,270,0.0,2.7,39,0.00,,,0.00,VWS V14.01,2013-10-01 22:22:00,
2013-10-01 17:27:00,82.0,55.4,29.91,West,270,0.0,2.2,40,0.00,,,0.00,VWS V14.01,2013-10-01 22:27:00,
2013-10-01 17:32:00,81.9,55.2,29.91,WNW,292,0.0,0.0,40,0.00,,,0.00,VWS V14.01,2013-10-01 22:32:00,
2013-10-01 17:38:00,81.5,54.9,29.91,WNW,292,0.0,0.0,40,0.00,,,0.00,VWS V14.01,2013-10-01 22:38:00,
2013-10-01 17:42:00,81.3,55.4,29.91,WNW,292,0.0,0.0,41,0.00,,,0.00,VWS V14.01,2013-10-01 22:42:00,
2013-10-01 17:48:00,81.1,55.2,29.91,WNW,292,0.0,0.0,41,0.00,,,0.00,VWS V14.01,2013-10-01 22:48:00,
2013-10-01 17:53:00,81.0,55.1,29.91,WNW,292,0.0,0.0,41,0.00,,,0.00,VWS V14.01,2013-10-01 22:53:00,
2013-10-01 17:58:00,80.6,54.8,29.91,WNW,292,0.0,0.0,41,0.00,,,0.00,VWS V14.01,2013-10-01 22:58:00,
2013-10-01 18:03:00,80.4,55.2,29.91,WNW,292,0.0,0.0,42,0.00,,,0.00,VWS V14.01,2013-10-01 23:03:00,
2013-10-01 18:08:00,80.1,55.6,29.91,WNW,292,0.0,0.0,43,0.00,,,0.00,VWS V14.01,2013-10-01 23:08:00,
2013-10-01 18:13:00,79.5,55.1,29.91,WNW,292,0.0,0.0,43,0.00,,,0.00,VWS V14.01,2013-10-01 23:13:00,
2013-10-01 18:18:00,79.2,55.4,29.91,WNW,292,0.0,0.0,44,0.00,,,0.00,VWS V14.01,2013-10-01 23:18:00,
2013-10-01 18:20:00,78.8,55.1,29.91,WNW,292,0.0,0.0,44,0.00,,,0.00,VWS V14.01,2013-10-01 23:20:00,
2013-10-01 18:25:00,78.1,55.0,29.91,WNW,292,0.0,0.0,45,0.00,,,0.00,VWS V14.01,2013-10-01 23:25:00,
2013-10-01 18:30:00,77.7,54.7,29.91,WNW,292,0.0,0.0,45,0.00,,,0.00,VWS V14.01,2013-10-01 23:30:00,
2013-10-01 18:35:00,77.0,54.7,29.91,WNW,292,0.0,0.0,46,0.00,,,0.00,VWS V14.01,2013-10-01 23:35:00,
2013-10-01 18:40:00,76.6,54.9,29.91,WNW,292,0.0,0.0,47,0.00,,,0.00,VWS V14.01,2013-10-01 23:40:00,
2013-10-01 18:45:00,76.3,54.6,29.91,WNW,292,0.0,0.0,47,0.00,,,0.00,VWS V14.01,2013-10-01 23:45:00,
2013-10-01 18:50:00,75.6,54.5,29.91,WNW,292,0.0,0.0,48,0.00,,,0.00,VWS V14.01,2013-10-01 23:50:00,
2013-10-01 18:55:00,75.2,54.8,29.91,WNW,292,0.0,0.0,49,0.00,,,0.00,VWS V14.01,2013-10-01 23:55:00,
2013-10-01 19:00:00,74.8,55.0,29.91,WNW,292,0.0,0.0,50,0.00,,,0.00,VWS V14.01,2013-10-02 00:00:00,
2013-10-01 19:05:00,74.3,55.0,29.91,WNW,292,0.0,0.0,51,0.00,,,0.00,VWS V14.01,2013-10-02 00:05:00,
2013-10-01 19:10:00,73.9,55.2,29.91,WNW,292,0.0,0.0,52,0.00,,,0.00,VWS V14.01,2013-10-02 00:10:00,
2013-10-01 19:15:00,73.8,55.6,29.91,WNW,292,0.0,0.0,53,0.00,,,0.00,VWS V14.01,2013-10-02 00:15:00,
2013-10-01 19:17:00,73.6,55.4,29.91,WNW,292,0.0,0.0,53,0.00,,,0.00,VWS V14.01,2013-10-02 00:17:00,
2013-10-01 19:22:00,73.2,55.6,29.94,WNW,292,0.0,0.0,54,0.00,,,0.00,VWS V14.01,2013-10-02 00:22:00,
2013-10-01 19:27:00,72.9,55.8,29.94,WNW,292,0.0,0.0,55,0.00,,,0.00,VWS V14.01,2013-10-02 00:27:00,
2013-10-01 19:32:00,72.5,55.4,29.94,WNW,292,0.0,0.0,55,0.00,,,0.00,VWS V14.01,2013-10-02 00:32:00,
2013-10-01 19:37:00,72.3,55.8,29.94,WNW,292,0.0,0.0,56,0.00,,,0.00,VWS V14.01,2013-10-02 00:37:00,
2013-10-01 19:42:00,71.8,55.8,29.94,WNW,292,0.0,0.0,57,0.00,,,0.00,VWS V14.01,2013-10-02 00:42:00,
2013-10-01 19:47:00,71.6,55.6,29.94,WNW,292,0.0,0.0,57,0.00,,,0.00,VWS V14.01,2013-10-02 00:47:00,
2013-10-01 19:52:00,71.2,55.7,29.94,WNW,292,0.0,0.0,58,0.00,,,0.00,VWS V14.01,2013-10-02 00:52:00,
2013-10-01 19:57:00,70.9,56.3,29.94,WNW,292,0.0,0.0,60,0.00,,,0.00,VWS V14.01,2013-10-02 00:57:00,
2013-10-01 20:02:00,70.7,56.2,29.94,WNW,292,0.0,0.0,60,0.00,,,0.00,VWS V14.01,2013-10-02 01:02:00,
2013-10-01 20:07:00,70.3,56.7,29.94,WNW,292,0.0,0.0,62,0.00,,,0.00,VWS V14.01,2013-10-02 01:07:00,
2013-10-01 20:12:00,70.0,56.4,29.94,WNW,292,0.0,0.0,62,0.00,,,0.00,VWS V14.01,2013-10-02 01:12:00,
2013-10-01 20:17:00,70.0,56.8,29.94,WNW,292,0.0,0.0,63,0.00,,,0.00,VWS V14.01,2013-10-02 01:17:00,
2013-10-01 20:22:00,70.2,57.0,29.94,WNW,292,0.0,0.0,63,0.00,,,0.00,VWS V14.01,2013-10-02 01:22:00,
2013-10-01 20:27:00,70.3,57.6,29.94,WNW,292,0.0,0.0,64,0.00,,,0.00,VWS V14.01,2013-10-02 01:27:00,
2013-10-01 20:32:00,70.5,58.2,29.94,WNW,292,0.0,0.0,65,0.00,,,0.00,VWS V14.01,2013-10-02 01:32:00,
2013-10-01 20:37:00,70.3,58.0,29.94,WNW,292,0.0,0.0,65,0.00,,,0.00,VWS V14.01,2013-10-02 01:37:00,
2013-10-01 20:43:00,70.3,58.0,29.94,WNW,292,0.0,0.0,65,0.00,,,0.00,VWS V14.01,2013-10-02 01:43:00,
2013-10-01 20:48:00,70.0,58.1,29.94,WNW,292,0.0,0.0,66,0.00,,,0.00,VWS V14.01,2013-10-02 01:48:00,
2013-10-01 20:53:00,69.8,58.8,29.94,WNW,292,0.0,0.0,68,0.00,,,0.00,VWS V14.01,2013-10-02 01:53:00,
2013-10-01 20:58:00,69.8,59.6,29.94,WNW,292,0.0,0.0,70,0.00,,,0.00,VWS V14.01,2013-10-02 01:58:00,
2013-10-01 21:03:00,69.8,59.6,29.94,WNW,292,0.0,0.0,70,0.00,,,0.00,VWS V14.01,2013-10-02 02:03:00,
2013-10-01 21:08:00,69.6,60.2,29.94,WNW,292,0.0,0.0,72,0.00,,,0.00,VWS V14.01,2013-10-02 02:08:00,
2013-10-01 21:13:00,69.4,60.4,29.94,WNW,292,0.0,0.0,73,0.00,,,0.00,VWS V14.01,2013-10-02 02:13:00,
2013-10-01 21:18:00,69.6,61.3,29.94,WNW,292,0.0,0.0,75,0.00,,,0.00,VWS V14.01,2013-10-02 02:18:00,
2013-10-01 21:23:00,69.6,61.7,29.97,WNW,292,0.0,0.0,76,0.00,,,0.00,VWS V14.01,2013-10-02 02:23:00,
2013-10-01 21:28:00,69.4,61.5,29.97,WNW,292,0.0,0.0,76,0.00,,,0.00,VWS V14.01,2013-10-02 02:28:00,
2013-10-01 21:33:00,69.3,61.8,29.97,WNW,292,0.0,0.0,77,0.00,,,0.00,VWS V14.01,2013-10-02 02:33:00,
2013-10-01 21:38:00,69.3,61.8,29.94,WNW,292,0.0,0.0,77,0.00,,,0.00,VWS V14.01,2013-10-02 02:38:00,
2013-10-01 21:43:00,69.1,61.6,29.94,WNW,292,0.0,0.0,77,0.00,,,0.00,VWS V14.01,2013-10-02 02:43:00,
2013-10-01 21:48:00,68.9,61.8,29.94,WNW,292,0.0,0.0,78,0.00,,,0.00,VWS V14.01,2013-10-02 02:48:00,
2013-10-01 21:53:00,68.7,62.0,29.97,WNW,292,0.0,0.0,79,0.00,,,0.00,VWS V14.01,2013-10-02 02:53:00,
2013-10-01 21:58:00,68.7,62.0,29.97,WNW,292,0.0,0.0,79,0.00,,,0.00,VWS V14.01,2013-10-02 02:58:00,
2013-10-01 22:03:00,68.5,61.8,29.97,WNW,292,0.0,0.0,79,0.00,,,0.00,VWS V14.01,2013-10-02 03:03:00,
2013-10-01 22:08:00,68.5,62.1,29.97,WNW,292,0.0,0.0,80,0.00,,,0.00,VWS V14.01,2013-10-02 03:08:00,
2013-10-01 22:13:00,68.4,62.3,29.97,WNW,292,0.0,0.0,81,0.00,,,0.00,VWS V14.01,2013-10-02 03:13:00,
2013-10-01 22:18:00,68.4,62.3,29.97,WNW,292,0.0,0.0,81,0.00,,,0.00,VWS V14.01,2013-10-02 03:18:00,
2013-10-01 22:23:00,68.4,62.3,29.94,WNW,292,0.0,0.0,81,0.00,,,0.00,VWS V14.01,2013-10-02 03:23:00,
2013-10-01 22:28:00,68.4,62.7,29.94,WNW,292,0.0,0.0,82,0.00,,,0.00,VWS V14.01,2013-10-02 03:28:00,
2013-10-01 22:33:00,68.2,62.5,29.94,WNW,292,0.0,0.0,82,0.00,,,0.00,VWS V14.01,2013-10-02 03:33:00,
2013-10-01 22:38:00,68.2,62.5,29.97,WNW,292,0.0,0.0,82,0.00,,,0.00,VWS V14.01,2013-10-02 03:38:00,
2013-10-01 22:43:00,68.0,62.3,29.97,WNW,292,0.0,0.0,82,0.00,,,0.00,VWS V14.01,2013-10-02 03:43:00,
2013-10-01 22:48:00,68.0,62.3,29.97,WNW,292,0.0,0.0,82,0.00,,,0.00,VWS V14.01,2013-10-02 03:48:00,
2013-10-01 22:53:00,68.0,62.7,29.94,WNW,292,0.0,0.0,83,0.00,,,0.00,VWS V14.01,2013-10-02 03:53:00,
2013-10-01 22:58:00,67.8,62.8,29.94,WNW,292,0.0,0.0,84,0.00,,,0.00,VWS V14.01,2013-10-02 03:58:00,
2013-10-01 23:01:00,67.8,62.8,29.94,WNW,292,0.0,0.0,84,0.00,,,0.00,VWS V14.01,2013-10-02 04:01:00,
2013-10-01 23:06:00,67.6,62.6,29.94,WNW,292,0.0,0.0,84,0.00,,,0.00,VWS V14.01,2013-10-02 04:06:00,
2013-10-01 23:16:00,67.6,63.0,29.94,WNW,292,0.0,0.0,85,0.00,,,0.00,VWS V14.01,2013-10-02 04:16:00,
2013-10-01 23:21:00,67.6,63.3,29.97,WNW,292,0.0,0.0,86,0.00,,,0.00,VWS V14.01,2013-10-02 04:21:00,
2013-10-01 23:26:00,67.5,63.1,29.97,WNW,292,0.0,0.0,86,0.00,,,0.00,VWS V14.01,2013-10-02 04:26:00,
2013-10-01 23:31:00,67.3,63.0,29.97,WNW,292,0.0,0.0,86,0.00,,,0.00,VWS V14.01,2013-10-02 04:31:00,
2013-10-01 23:36:00,67.1,62.8,29.97,WNW,292,0.0,0.0,86,0.00,,,0.00,VWS V14.01,2013-10-02 04:36:00,
2013-10-01 23:41:00,66.9,62.6,29.97,WNW,292,0.0,0.0,86,0.00,,,0.00,VWS V14.01,2013-10-02 04:41:00,
2013-10-01 23:46:00,66.7,62.4,29.97,WNW,292,0.0,0.0,86,0.00,,,0.00,VWS V14.01,2013-10-02 04:46:00,
2013-10-01 23:51:00,66.7,62.8,29.97,WNW,292,0.0,0.0,87,0.00,,,0.00,VWS V14.01,2013-10-02 04:51:00,
2013-10-01 23:56:00,66.6,62.6,29.97,WNW,292,0.0,0.0,87,0.00,,,0.00,VWS V14.01,2013-10-02 04:56:00,